DW6628 Weather Reports


Display with metric or nautical units.
time (UTC)temp
F
wind
direction
speed
MPH
gust
MPH
rain 1hr
in
rain 24hr
in
rain mn
in
humidity
%
barometer
mb
20190920095049 65 135 0.0 0.0 0.00 0.00 0.00 91 982.1
20190920094049 65 113 0.0 0.0 0.00 0.00 0.00 91 982.1
20190920093048 65 113 0.0 0.0 0.00 0.00 0.00 91 982.1
20190920092548 65 113 0.0 0.0 0.00 0.00 0.00 91 982.4
20190920092048 65 113 0.0 0.0 0.00 0.00 0.00 91 982.4
20190920084047 66 113 0.0 0.0 0.00 0.00 0.00 90 982.7
20190920082046 66 113 0.0 0.0 0.00 0.00 0.00 90 983.1
20190920081546 66 113 0.0 0.0 0.00 0.00 0.00 91 983.1
20190920075545 65 113 0.0 0.0 0.00 0.00 0.00 90 983.1
20190920074045 65 113 0.0 0.0 0.00 0.00 0.00 90 983.1
20190920073545 65 113 0.0 0.0 0.00 0.00 0.00 90 983.1
20190920072544 65 113 0.0 0.0 0.00 0.00 0.00 90 983.1
20190920072044 65 113 0.0 0.0 0.00 0.00 0.00 90 983.1
20190920071544 65 90 0.0 0.0 0.00 0.00 0.00 90 983.1
20190920071044 65 113 0.0 0.0 0.00 0.00 0.00 90 983.1
20190920070543 65 113 0.0 0.0 0.00 0.00 0.00 90 983.1
20190920065544 65 90 0.0 0.0 0.00 0.00 0.00 90 983.1
20190920065043 65 113 0.0 0.0 0.00 0.00 0.00 90 983.4
20190920064543 65 113 0.0 0.0 0.00 0.00 0.00 89 983.4
20190920062542 65 113 0.0 0.0 0.00 0.00 0.00 90 983.1
20190920062043 65 113 0.0 0.0 0.00 0.00 0.00 90 983.1
20190920061542 65 113 0.0 0.0 0.00 0.00 0.00 90 983.1
20190920061042 65 113 0.0 0.0 0.00 0.00 0.00 90 983.1
20190920060042 65 113 0.0 0.0 0.00 0.00 0.00 90 983.1
20190920055042 65 90 0.0 0.0 0.00 0.00 0.00 90 983.1
20190920054541 65 90 0.0 0.0 0.00 0.00 0.00 90 983.1
20190920053541 64 135 0.0 0.0 0.00 0.00 0.00 89 983.1
20190920053041 64 135 0.0 0.0 0.00 0.00 0.00 89 983.1
20190920051540 64 135 0.0 0.0 0.00 0.00 0.00 89 983.1
20190920050540 64 135 0.0 0.0 0.00 0.00 0.00 88 983.4
20190920045540 64 113 0.0 0.0 0.00 0.00 0.00 87 983.1
20190920043039 65 135 0.0 0.0 0.00 0.00 0.00 87 983.1
20190920041609 66 135 0.0 0.0 0.00 0.00 0.00 87 982.7
20190920041109 66 113 0.0 0.0 0.00 0.00 0.00 86 982.7
20190920040108 66 113 0.0 0.0 0.00 0.00 0.00 86 982.7
20190920033107 67 113 0.0 0.0 0.00 0.00 0.00 85 982.4
20190920032607 67 113 0.0 0.0 0.00 0.00 0.00 84 982.7
20190920032107 67 135 0.0 0.0 0.00 0.00 0.00 84 982.7
20190920031606 67 113 0.0 0.0 0.00 0.00 0.00 84 982.7
20190920031106 67 113 0.0 0.0 0.00 0.00 0.00 84 982.7
20190920030606 68 113 0.0 0.0 0.00 0.00 0.00 84 982.7
20190920025606 68 113 0.0 0.0 0.00 0.00 0.00 83 982.7
20190920023606 68 113 0.0 0.0 0.00 0.00 0.00 83 982.7
20190920022605 68 68 0.0 0.0 0.00 0.00 0.00 83 982.7
20190920020105 69 113 0.0 0.0 0.00 0.00 0.00 80 982.7
20190920015104 70 113 0.0 0.0 0.00 0.00 0.00 79 982.4
20190920014604 71 113 0.0 0.0 0.00 0.00 0.00 79 982.4
20190920011603 72 68 0.0 0.0 0.00 0.00 0.00 77 982.4
20190920011103 73 68 0.0 0.0 0.00 0.00 0.00 77 982.4
20190920004102 74 113 0.0 0.0 0.00 0.00 0.00 73 982.1
20190920003602 75 113 0.0 0.0 0.00 0.00 0.00 73 982.1
20190920002102 76 90 0.0 0.0 0.00 0.00 0.00 71 982.1
20190920000601 78 90 0.0 0.0 0.00 0.00 0.00 69 981.7
20190920000101 78 68 0.0 0.0 0.00 0.00 0.00 68 981.7
20190919232559 81 113 0.0 0.0 0.00 0.00 0.00 62 981.7
20190919232100 81 113 0.0 0.0 0.00 0.00 0.00 61 981.7
20190919231059 82 113 0.0 0.0 0.00 0.00 0.00 59 981.7
20190919225559 83 135 0.0 0.0 0.00 0.00 0.00 59 981.7
20190919224559 83 135 0.0 0.0 0.00 0.00 0.00 58 981.7
20190919223558 83 158 0.0 0.0 0.00 0.00 0.00 57 981.7
20190919223058 83 135 0.0 0.0 0.00 0.00 0.00 57 982.1
20190919220557 83 135 0.0 0.0 0.00 0.00 0.00 56 981.7
20190919215057 84 135 0.0 0.0 0.00 0.00 0.00 56 982.1
20190919214556 84 113 0.0 0.0 0.00 0.00 0.00 56 982.1
20190919213056 84 158 0.0 0.0 0.00 0.00 0.00 56 982.1
20190919212556 84 158 0.0 0.0 0.00 0.00 0.00 56 982.1
20190919212055 84 158 0.0 0.0 0.00 0.00 0.00 56 982.1
20190919211556 84 158 0.0 0.0 0.00 0.00 0.00 56 982.1
20190919210055 84 180 0.0 0.0 0.00 0.00 0.00 57 982.4
20190919205055 84 135 0.0 0.0 0.00 0.00 0.00 57 982.4
20190919204555 84 68 0.0 0.0 0.00 0.00 0.00 57 982.1
20190919203554 84 113 0.0 0.0 0.00 0.00 0.00 57 982.4
20190919202554 84 45 0.0 0.0 0.00 0.00 0.00 57 982.4
20190919201053 84 113 0.0 0.0 0.00 0.00 0.00 57 982.7
20190919195553 84 135 0.0 0.0 0.00 0.00 0.00 57 982.7
20190919195053 83 135 0.0 0.0 0.00 0.00 0.00 58 982.7
20190919194553 83 158 0.0 0.0 0.00 0.00 0.00 56 982.7
20190919194053 83 113 0.0 0.0 0.00 0.00 0.00 57 982.7
20190919193552 83 113 0.0 0.0 0.00 0.00 0.00 56 983.1
20190919193053 83 135 0.0 0.0 0.00 0.00 0.00 57 983.1
20190919192552 83 135 0.0 0.0 0.00 0.00 0.00 57 983.4
20190919191552 82 203 0.0 0.0 0.00 0.00 0.00 59 983.1
20190919190051 82 135 0.0 0.0 0.00 0.00 0.00 59 983.1
20190919185051 82 113 0.0 0.0 0.00 0.00 0.00 58 983.1
20190919184551 82 158 0.0 0.0 0.00 0.00 0.00 59 983.1
20190919183551 81 158 0.0 0.0 0.00 0.00 0.00 60 983.1
20190919183051 81 135 0.0 0.0 0.00 0.00 0.00 59 983.1
20190919181550 80 113 0.0 0.0 0.00 0.00 0.00 60 983.1
20190919181050 80 45 0.0 0.0 0.00 0.00 0.00 60 983.1
20190919172548 79 135 0.0 0.0 0.00 0.00 0.00 62 983.7
20190919172049 79 158 0.0 0.0 0.00 0.00 0.00 62 983.7
20190919170048 78 90 0.0 0.0 0.00 0.00 0.00 64 983.7
20190919165547 78 68 0.0 0.0 0.00 0.00 0.00 65 983.7
20190919164047 78 113 0.0 0.0 0.00 0.00 0.00 66 984.1
20190919162547 77 135 0.0 0.0 0.00 0.00 0.00 67 983.7
20190919161546 76 45 0.0 0.0 0.00 0.00 0.00 68 983.7
20190919155546 75 135 0.0 0.0 0.00 0.00 0.00 69 983.7
20190919154045 75 248 0.0 0.0 0.00 0.00 0.00 71 983.7
20190919153545 74 270 0.0 0.0 0.00 0.00 0.00 72 983.7
20190919153045 74 270 0.0 0.0 0.00 0.00 0.00 72 983.7
20190919152545 74 270 0.0 0.0 0.00 0.00 0.00 72 983.7
20190919152045 74 270 0.0 0.0 0.00 0.00 0.00 72 983.7
20190919142543 76 270 0.0 0.0 0.00 0.00 0.00 72 983.7
20190919142043 75 270 0.0 0.0 0.00 0.00 0.00 72 983.7
20190919141543 74 270 0.0 0.0 0.00 0.00 0.00 74 983.7
20190919140542 73 270 0.0 0.0 0.00 0.00 0.00 77 984.1
20190919135042 68 270 0.0 0.0 0.00 0.00 0.00 85 984.1
20190919134542 66 270 0.0 0.0 0.00 0.00 0.00 88 984.1
20190919134042 64 270 0.0 0.0 0.00 0.00 0.00 89 984.1
20190919133542 63 270 0.0 0.0 0.00 0.00 0.00 91 984.1
20190919133042 60 270 0.0 0.0 0.00 0.00 0.00 90 984.1
20190919132541 60 270 0.0 0.0 0.00 0.00 0.00 90 983.7
20190919131041 60 270 0.0 0.0 0.00 0.00 0.00 90 983.7
20190919130110 59 270 0.0 0.0 0.00 0.00 0.00 90 983.4
20190919125541 59 270 0.0 0.0 0.00 0.00 0.00 90 983.4
20190919124040 59 270 0.0 0.0 0.00 0.00 0.00 90 983.4
20190919122610 59 270 0.0 0.0 0.00 0.00 0.00 90 983.1
20190919122109 59 270 0.0 0.0 0.00 0.00 0.00 90 983.1
20190919121109 59 270 0.0 0.0 0.00 0.00 0.00 90 983.1
20190919120140 59 270 0.0 0.0 0.00 0.00 0.00 90 982.7
20190919115528 59 270 0.0 0.0 0.00 0.00 0.00 90 983.1
20190919115028 59 270 0.0 0.0 0.00 0.00 0.00 90 982.7
20190919114057 59 270 0.0 0.0 0.00 0.00 0.00 90 982.7
20190919112057 59 270 0.0 0.0 0.00 0.00 0.00 90 982.7
20190919105556 59 270 0.0 0.0 0.00 0.00 0.00 89 982.1
20190919103555 59 270 0.0 0.0 0.00 0.00 0.00 90 982.1
20190919103055 60 270 0.0 0.0 0.00 0.00 0.00 90 982.1
20190919100054 60 270 0.0 0.0 0.00 0.00 0.00 90 981.7